Location: Unspecified
(0.0000°N, 0.0000°E)
Time: 05:14:26
(UTC+00:00)

Transit 4A - Pass Details

Date: 13 December 2018
Orbit: 862 x 983 km, 66.8° (Epoch: 17 June)

Event Time Altitude Azimuth Distance (km) Brightness Sun altitude
Rises 01:36:19 0° 182° (S) 3,515 - -56.0°
Reaches altitude 10° 01:39:07 10° 172° (S) 2,555 - -55.5°
Maximum altitude 01:44:18 32° 110° (ESE) 1,452 - -54.6°
Drops below altitude 10° 01:49:23 10° 48° (NE) 2,499 - -53.7°
Sets 01:52:04 0° 38° (NE) 3,427 - -53.1°
